Zurück zum Katalog

NANKEDA-1

AktivWissenschaftSSO
NORAD 64049·PAYLOAD·🇨🇳 China
Dieser Satellitenname wurde noch nicht durch offizielle Quellen bestätigt.

Gestartet May 17, 2025 von Jiuquan Satellite Launch Center

Loading…

Nächste Überflüge (nächste 24 Stunden)

TLE

AktuellSource: Space-Track

Epoche: Sep 14, 2026, 15:08 UTC

1 64049U 25103B   26257.63119590  .00002710  00000-0  12795-3 0  9997
2 64049  97.3718 327.5376 0001220 176.4970 183.6274 15.20278166 73652

Verfolge NANKEDA-1 in Echtzeit mit AllMySat

Download on the App Store